Weather History for LTFE - November, 2013

Change the Weather History Date:

Saturday, November 2, 2013

  Actual Average (LGKO) Record (LGKO)
Temperature  
Mean Temperature 58 °F -  
Max Temperature 71 °F 67 °F 78 °F (2007)
Min Temperature 46 °F 57 °F 53 °F (2005)
Degree Days  
Heating Degree Days 6    
Growing Degree Days 8 (Base 50)    
Moisture  
Dew Point 53 °F    
Average Humidity 84    
Maximum Humidity 100    
Minimum Humidity 57    
Precipitation  
Precipitation 0.00 in - - ()
Sea Level Pressure  
Sea Level Pressure 30.08 in    
Wind  
Wind Speed 4 mph ()    
Max Wind Speed 13 mph    
Max Gust Speed -    
Visibility 3.4 miles    
Events Fog    
Averages and records for this station are not official NWS values.
T = Trace of Precipitation, MM = Missing Value Source: Averaged Metar Reports

Daily Weather History Graph

Daily Weather History Graph

Search for Another Location

Airport or City:

Trip Planner

Search our weather history database for the weather conditions in past years. The results will help you decide how hot, cold, wet, or windy it might be!

Date:

Astronomy

Nov. 02, 2013 Rise Set
Actual Time 6:34 AM EET 5:10 PM EET
Civil Twilight 6:07 AM EET 5:37 PM EET
Nautical Twilight 5:36 AM EET 6:08 PM EET
Astronomical Twilight 5:06 AM EET 6:38 PM EET
Moon 5:12 AM EET (11/2) 4:28 PM EET (11/2)
Length of Visible Light 11h 29m
Length of Day
10h 35m
Waning Crescent, 2% of the Moon is Illuminated
Nov 2
Waning Crescent
Nov 3
New
Nov 10
First Quarter
Nov 17
Full
Nov 25
Last Quarter

Hourly Weather History & Observations

Time (EET) Temp. Windchill Dew Point Humidity Pressure Visibility Wind Dir Wind Speed Gust Speed Precip Events Conditions
12:20 AM 51.8 °F - 50.0 °F 94% 30.09 in 3.7 mi Variable 2.3 mph - N/A   Unknown
12:50 AM 51.8 °F - 50.0 °F 94% 30.09 in 3.7 mi ESE 3.5 mph - N/A   Unknown
1:20 AM 50.0 °F - 48.2 °F 94% 30.09 in 3.7 mi SE 3.5 mph - N/A   Unknown
1:50 AM 51.8 °F - 50.0 °F 94% 30.09 in 3.7 mi SSE 3.5 mph - N/A   Unknown
2:20 AM 50.0 °F - 48.2 °F 94% 30.09 in - Variable 2.3 mph - N/A   Mist
2:50 AM 48.2 °F - 46.4 °F 93% 30.09 in 2.8 mi East 3.5 mph - N/A   Mist
3:20 AM 48.2 °F - 46.4 °F 93% 30.09 in - Variable 2.3 mph - N/A   Mist
3:50 AM 50.0 °F - 48.2 °F 94% 30.09 in 2.8 mi SE 3.5 mph - N/A   Mist
4:20 AM 50.0 °F - 48.2 °F 94% 30.09 in 2.5 mi Variable 2.3 mph - N/A   Mist
4:50 AM 48.2 °F - 46.4 °F 93% 30.09 in 1.7 mi SE 2.3 mph - N/A Fog Patches of Fog
5:20 AM 46.4 °F - 44.6 °F 93% 30.09 in 2.2 mi Variable 2.3 mph - N/A   Mist
5:50 AM 46.4 °F - 46.4 °F 100% 30.09 in 1.8 mi East 2.3 mph - N/A Fog Patches of Fog
6:20 AM 46.4 °F 45.2 °F 44.6 °F 93% 30.09 in 1.7 mi East 3.5 mph - N/A Fog Patches of Fog
6:50 AM 48.2 °F - 46.4 °F 93% 30.09 in 1.2 mi Variable 2.3 mph - N/A Fog Patches of Fog
7:20 AM 46.4 °F 45.2 °F 46.4 °F 100% 30.09 in 1.7 mi SE 3.5 mph - N/A Fog Patches of Fog
7:43 AM 48.2 °F - 48.2 °F 100% 30.12 in - Variable 2.3 mph - N/A   Mist
7:50 AM 50.0 °F - 48.2 °F 94% 30.12 in - Variable 1.2 mph - N/A   Mist
8:20 AM 53.6 °F - 51.8 °F 94% 30.12 in 3.1 mi Variable 2.3 mph - N/A   Mist
8:50 AM 55.4 °F - 53.6 °F 94% 30.12 in 2.8 mi ESE 3.5 mph - N/A   Mist
9:20 AM 59.0 °F - 53.6 °F 82% 30.12 in 3.1 mi Variable 2.3 mph - N/A   Mist
9:50 AM 62.6 °F - 55.4 °F 77% 30.12 in 4.3 mi Variable 2.3 mph - N/A   Unknown
10:20 AM 64.4 °F - 55.4 °F 73% 30.09 in 5.0 mi Variable 2.3 mph - N/A   Unknown
10:50 AM 68.0 °F - 53.6 °F 60% 30.09 in - Variable 2.3 mph - N/A   Clear
11:20 AM 69.8 °F - 55.4 °F 60% 30.09 in - West 5.8 mph - N/A   Clear
11:50 AM 71.6 °F - 55.4 °F 57% 30.09 in - WNW 6.9 mph - N/A   Clear
12:20 PM 71.6 °F - 55.4 °F 57% 30.06 in - WNW 6.9 mph - N/A   Clear
12:50 PM 71.6 °F - 55.4 °F 57% 30.06 in - WNW 9.2 mph - N/A   Clear
1:20 PM 71.6 °F - 55.4 °F 57% 30.06 in - West 12.7 mph - N/A   Clear
1:50 PM 71.6 °F - 55.4 °F 57% 30.06 in - West 12.7 mph - N/A   Clear
2:20 PM 71.6 °F - 55.4 °F 57% 30.04 in - West 11.5 mph - N/A   Clear
2:50 PM 69.8 °F - 57.2 °F 64% 30.04 in - West 11.5 mph - N/A   Clear
3:20 PM 69.8 °F - 57.2 °F 64% 30.04 in - West 10.4 mph - N/A   Clear
3:50 PM 68.0 °F - 59.0 °F 73% 30.04 in - West 11.5 mph - N/A   Clear
4:20 PM 68.0 °F - 57.2 °F 68% 30.04 in - West 8.1 mph - N/A   Clear
4:50 PM 66.2 °F - 57.2 °F 73% 30.04 in - WSW 8.1 mph - N/A   Clear
5:20 PM 66.2 °F - 57.2 °F 73% 30.04 in - SW 5.8 mph - N/A   Clear
5:50 PM 64.4 °F - 59.0 °F 83% 30.06 in - SSW 5.8 mph - N/A   Clear
6:20 PM 64.4 °F - 59.0 °F 83% 30.06 in - South 5.8 mph - N/A   Clear
6:50 PM 60.8 °F - 57.2 °F 88% 30.06 in - SSE 4.6 mph - N/A   Clear
7:20 PM 60.8 °F - 57.2 °F 88% 30.06 in 5.0 mi SSE 4.6 mph - N/A   Unknown
7:50 PM 57.2 °F - 55.4 °F 94% 30.09 in 5.0 mi South 4.6 mph - N/A   Unknown
8:20 PM 57.2 °F - 55.4 °F 94% 30.09 in - Variable 1.2 mph - N/A   Clear
8:50 PM 55.4 °F - 53.6 °F 94% 30.09 in - SE 3.5 mph - N/A   Clear
9:20 PM 55.4 °F - 53.6 °F 94% 30.09 in 5.0 mi SE 4.6 mph - N/A   Unknown
9:50 PM 55.4 °F - 53.6 °F 94% 30.09 in 5.0 mi Variable 2.3 mph - N/A   Unknown
10:20 PM 55.4 °F - 53.6 °F 94% 30.09 in - SE 2.3 mph - N/A   Clear
10:50 PM 53.6 °F - 51.8 °F 94% 30.09 in 5.0 mi ESE 3.5 mph - N/A   Unknown
11:20 PM 53.6 °F - 51.8 °F 94% 30.09 in 4.3 mi ESE 3.5 mph - N/A   Unknown
11:50 PM 53.6 °F - 51.8 °F 94% 30.09 in 4.3 mi Variable 2.3 mph - N/A   Unknown